Volver al catálogo

FENGYUN 1C DEB

ActivoPO
NORAD 29880·DEBRIS·🇨🇳 China

Lanzado May 10, 1999 desde Taiyuan Satellite Launch Center

Loading…

Próximos Pases (próximas 24 horas)

TLE

ActualizadoSource: Space-Track

Época: Sep 14, 2026, 04:54 UTC

1 29880U 99025GA  26257.20448947  .00001012  00000-0  62456-3 0  9992
2 29880  98.1801 150.0613 0231567  49.2501  99.9053 13.94801364994014

Sigue FENGYUN 1C DEB en tiempo real con AllMySat

Download on the App Store